DJ2KUA-6 Weather Reports


time (UTC)temp
C
wind
direction
speed
KPH
gust
KPH
rain 1hr
cm
rain 24hr
cm
rain mn
cm
humidity
%
barometer
mb
20260506194854 12 135 0.0 0.0 0.05 0.15 0.00 87 1061.0
20260506192956 12 112 0.0 0.0 0.00 0.10 0.00 86 1060.0
20260506191054 12 315 0.0 0.0 0.00 0.10 0.00 86 1060.0
20260506185154 13 135 0.0 0.0 0.00 0.25 0.00 85 1060.0
20260506181356 13 135 0.0 0.0 0.00 0.25 0.00 84 1060.0
20260506175456 13 315 0.0 0.0 0.00 0.30 0.00 83 1059.0
20260506173557 14 90 0.0 0.0 0.00 0.30 0.00 82 1059.0
20260506171653 14 112 0.0 0.0 0.05 0.30 0.00 83 1059.0
20260506165754 14 135 0.0 0.0 0.05 0.30 0.00 83 1059.0
20260506163856 14 135 0.0 0.0 0.05 0.30 0.00 83 1059.0
20260506161954 14 158 0.0 0.0 0.00 0.25 0.00 80 1059.0
20260506160056 15 135 0.0 0.0 0.00 0.25 0.00 76 1059.0
20260506154155 16 135 0.0 0.0 0.00 0.25 0.00 72 1059.0
20260506152255 17 158 0.0 0.0 0.00 0.25 0.00 68 1059.0
20260506144455 18 292 0.0 0.0 0.00 0.25 0.00 62 1058.0
20260506142554 18 292 0.0 0.0 0.00 0.25 0.00 60 1058.0
20260506140654 18 270 0.0 0.0 0.00 0.25 0.00 60 1058.0
20260506134755 19 315 0.0 0.0 0.00 0.30 0.00 58 1058.0
20260506132855 20 315 0.0 0.0 0.00 0.30 0.00 55 1058.0
20260506130956 21 292 0.0 0.0 0.00 0.30 0.00 54 1058.0
20260506125056 20 315 0.0 0.0 0.00 0.36 0.00 57 1058.0
20260506123156 20 292 0.0 0.0 0.00 0.36 0.00 58 1058.0
20260506121257 21 90 0.0 0.0 0.00 0.36 0.00 57 1058.0
20260506115354 21 315 0.0 0.0 0.00 0.36 0.00 59 1058.0
20260506113454 21 270 0.0 0.0 0.00 0.36 0.00 61 1058.0
20260506111556 19 135 0.0 0.0 0.00 0.36 0.00 63 1058.0
20260506105655 18 315 0.0 0.0 0.00 0.36 0.00 64 1059.0
20260506103755 18 202 0.0 0.0 0.00 0.36 0.00 65 1059.0
20260506101856 18 292 0.0 0.0 0.00 0.36 0.00 67 1059.0
20260506095954 18 315 0.0 0.0 0.00 0.36 0.00 67 1059.0
20260506092154 18 315 0.0 0.0 0.00 0.36 0.00 68 1059.0
20260506090256 20 135 0.0 0.0 0.05 0.36 0.00 69 1059.0
20260506084353 18 90 0.0 0.0 0.05 0.36 0.00 75 1059.0
20260506082455 16 248 0.0 0.0 0.05 0.36 0.00 77 1059.0
20260506080556 16 292 0.0 0.0 0.00 0.30 0.00 79 1059.0
20260506070857 15 315 0.0 0.0 0.00 0.30 0.00 86 1059.0
20260506061156 12 135 0.0 0.0 0.00 0.30 0.00 86 1059.0
20260506043657 10 158 0.0 0.0 0.00 0.30 0.00 87 1059.0
20260506041755 10 158 0.0 0.0 0.00 0.30 0.00 87 1059.0
20260506035854 10 158 0.0 0.0 0.00 0.30 0.00 87 1059.0
20260506033955 10 158 0.0 0.0 0.00 0.30 0.00 87 1059.0
20260506032055 11 158 0.0 0.0 0.00 0.30 0.00 87 1059.0
20260506030154 11 158 0.0 0.0 0.00 0.30 0.00 87 1059.0
20260506024255 11 158 0.0 0.0 0.00 0.30 0.00 86 1059.0
20260506022357 11 135 0.0 0.0 0.00 0.30 0.00 87 1059.0
20260506020455 11 135 0.0 0.0 0.00 0.30 0.00 87 1059.0
20260506014636 11 135 0.0 0.0 0.00 0.30 0.00 87 1059.0
20260506014556 11 135 0.0 0.0 0.00 0.30 0.00 87 1059.0
20260506012657 11 158 0.0 0.0 0.00 0.30 0.00 87 1059.0
20260506010758 11 158 0.0 0.0 0.00 0.30 0.00 87 1059.0
20260506004856 12 135 0.0 0.0 0.00 0.30 0.00 87 1059.0
20260506002956 12 135 0.0 0.0 0.00 0.30 0.00 87 1060.0
20260506001055 12 158 0.0 0.0 0.00 0.30 0.00 87 1060.0
20260505233255 12 158 0.0 0.0 0.00 0.30 0.00 87 1060.0
20260505231355 12 158 0.0 0.0 0.00 0.30 0.00 87 1060.0
20260505225457 12 158 0.0 0.0 0.00 0.30 0.00 87 1060.0
20260505223557 12 158 0.0 0.0 0.00 0.30 0.00 87 1060.0
20260505221655 13 135 0.0 0.0 0.00 0.30 0.00 87 1060.0
20260505215755 13 135 0.0 0.0 0.00 0.30 0.00 87 1060.0
20260505210057 14 135 0.0 0.0 0.00 0.30 0.00 86 1060.0
20260505204156 14 135 0.0 0.0 0.00 0.30 0.00 86 1060.0
20260505202257 15 158 0.0 0.0 0.10 0.30 0.00 87 1060.0